Dewpoint
31 28 27 30 33 37 39 38 38 41 45 46 47 48 49 50 50 49 50 49 49 50 51 51 51 51 51
29 28 30 33 35 36 36 35 39 41 44 44 45 46 46 48 48 49 46 48 47 47 48 48 49 50 50
28 30 32 34 36 35 35 36 38 38 39 41 42 46 46 47 49 47 45 45 47 46 46 46 47 47 47
30 32 33 35 35 35 36 36 37 38 37 38 41 44 44 44 45 43 43 45 47 46 45 45 45 45 45
31 32 33 34 34 34 35 35 36 35 36 40 40 39 39 41 41 43 44 44 46 46 46 45 44 43 43
32 31 32 33 34 34 34 34 31 33 34 33 34 33 34 38 39 40 42 43 46 45 44 43 42 41 42
34 32 30 32 34 33 33 33 32 33 32 31 33 33 34 37 37 39 41 42 44 45 43 43 41 41 41
35 35 34 34 34 34 34 33 32 32 32 30 32 33 33 34 36 38 40 40 41 40 40 40 40 39 39
35 34 35 35 36 35 34 32 30 30 31 31 32 32 32 33 33 39 37 37 36 36 36 37 37 37 37
35 36 36 36 36 36 35 32 31 29 30 30 31 30 29 31 38 37 36 36 35 34 33 34 35 35 35
33 33 33 33 34 37 36 34 32 31 33 32 30 29 29 28 29 31 32 31 32 31 31 32 32 32 33
32 32 33 33 33 34 35 34 35 33 32 33 31 29 28 27 26 28 30 31 30 30 29 30 30 31 32
32 32 32 34 34 34 35 35 34 33 33 32 31 30 28 25 24 25 26 28 28 28 28 28 28 29 30
32 32 33 34 34 34 33 33 31 30 31 32 32 31 28 27 26 25 26 26 28 27 27 28 27 29 28
30 31 31 31 29 32 33 32 30 29 28 30 31 30 29 28 26 26 27 26 26 27 27 26 27 27 28
29 30 30 30 29 31 32 31 29 29 28 28 29 28 28 28 29 25 25 26 27 26 27 26 25 26 28
27 27 29 30 30 30 31 30 29 28 29 28 28 26 23 21 24 29 26 26 26 27 27 26 25 26 26
Wind_Speed
13 13 15 13 13 9 12 13 11 8 11 10 11 13 13 12 11 12 10 9 9 11 11 11 12 13 14
13 13 14 12 11 12 13 11 12 11 10 13 13 14 14 12 10 10 7 8 7 9 10 11 10 10 12
15 12 13 13 10 9 10 11 11 12 13 14 15 9 9 8 6 7 10 11 11 8 11 11 11 11 12
15 14 12 10 9 11 11 8 10 12 13 15 16 8 8 9 9 12 13 11 12 11 12 10 11 12 12
15 14 13 10 9 6 7 11 11 14 10 9 10 8 11 11 12 8 6 7 11 13 8 7 9 11 13
14 15 15 13 9 9 7 9 7 2 5 10 10 13 12 11 9 13 12 12 11 8 7 7 11 14 14
19 18 18 15 11 11 9 11 13 12 11 15 7 13 12 10 8 9 10 12 12 8 7 9 12 14 14
21 22 19 18 16 12 11 11 12 12 10 10 8 10 9 9 12 7 1 3 2 2 5 7 10 13 15
21 22 23 23 17 11 12 12 13 10 9 11 7 7 9 13 10 4 2 2 2 5 7 9 11 14 14
14 15 20 19 22 20 15 17 14 7 7 6 2 2 6 4 3 3 6 7 5 9 11 12 11 10 11
17 16 15 16 13 15 18 18 17 18 5 5 4 2 5 5 5 6 6 7 8 8 12 13 13 12 13
17 17 15 15 14 14 15 17 17 20 11 13 7 11 7 7 8 2 5 6 7 9 9 13 14 15 16
18 18 16 15 15 14 13 15 14 13 15 17 14 13 13 14 9 8 9 4 8 13 8 9 11 12 14
18 16 14 12 15 16 17 16 17 17 19 17 16 17 18 18 16 19 13 10 2 8 12 12 11 11 12
16 16 15 14 17 15 17 16 19 17 17 15 18 18 17 17 17 17 16 15 14 13 13 13 11 11 12
14 14 17 18 19 16 17 19 21 19 18 13 14 11 11 15 22 20 18 16 13 12 11 12 13 11 11
15 19 18 19 21 19 18 20 22 20 17 15 15 15 16 20 9 27 19 14 11 10 10 10 13 13 11
Wind_Direction
288 298 294 293 290 313 316 315 296 324 330 325 303 290 286 281 283 289 280 291 304 302 308 306 303 299 295
282 288 285 288 290 296 285 306 306 312 303 300 291 285 285 273 278 281 285 280 282 291 295 296 298 303 303
283 285 288 285 281 289 290 302 293 295 307 300 301 294 308 287 268 276 294 294 259 259 279 287 290 295 301
277 278 276 281 293 279 278 275 305 301 300 295 282 292 289 285 269 278 278 271 260 249 262 276 286 291 295
271 279 277 275 269 289 308 301 300 284 293 297 309 316 309 295 278 294 305 297 290 256 236 256 283 287 291
265 270 277 281 277 275 276 290 303 294 316 292 294 289 281 271 294 301 303 306 270 234 246 267 284 282 284
260 260 273 276 284 277 256 259 261 282 312 292 285 284 282 269 279 289 305 290 267 247 273 282 280 283 286
245 255 258 271 276 276 271 282 284 281 258 275 276 277 310 291 281 284 332 346 35 359 309 295 294 296 295
254 262 272 276 276 273 254 257 270 266 228 243 280 306 285 281 280 190 203 213 326 328 313 300 299 301 297
281 260 254 258 254 244 244 244 244 288 230 224 270 315 303 276 177 254 263 256 262 296 297 293 291 299 299
281 274 271 274 262 232 227 232 239 240 192 192 201 201 232 288 277 283 274 299 292 305 303 297 293 286 289
267 264 259 248 252 251 236 232 236 238 231 208 228 209 222 265 268 253 278 279 300 286 291 301 292 287 282
263 261 259 255 238 237 237 233 233 239 229 224 224 224 225 245 255 259 304 256 272 280 267 286 292 290 292
260 262 261 253 245 241 235 229 231 239 236 228 219 223 239 239 243 260 259 259 227 274 284 277 281 276 276
261 265 263 264 269 257 245 235 233 238 238 216 216 219 230 240 244 246 255 258 264 271 270 278 274 273 276
262 267 267 265 263 263 244 238 240 239 235 212 195 204 218 236 231 247 248 251 250 258 259 265 280 277 276
264 266 263 267 263 258 251 239 239 240 231 216 201 204 222 238 256 216 232 237 243 238 239 253 272 282 286